Regional Weather Roundup
Issued by NWS Goodland, KS

Home | Current Version | Previous Version | Text Only | Print | Product List | Glossary Off
Versions: 1 2 3 4 5 6 7 8 9 10 11 12 13 14 15 16 17 18 19 20 21 22 23 24 25 26 27 28 29 30 31 32 33 34 35 36 37 38 39 40 41 42 43 44 45 46 47 48 49 50

450
ASUS43 KGLD 300608
RWRGLD

GOODLAND FORECAST AREA HOURLY WEATHER ROUNDUP
NATIONAL WEATHER SERVICE GOODLAND KS
1200 AM MDT SAT APR 30 2016

...OFFICIAL OBSERVATIONS...

CITY           SKY/WX    TMP DP  RH WIND       PRES   REMARKS
GOODLAND KS    CLOUDY    32  31  96 NW13      29.83F FOG
HILL CITY KS   LGT RAIN  42  40  92 N13       29.79F
IMPERIAL NEB   LGT SNOW  33  32  96 N8        29.86S FOG
MCCOOK NEB     CLOUDY    38  35  89 NE13      29.83F
AKRON CO       LGT SNOW  30  29  96 N10       29.87F FOG
BURLINGTON CO  CLOUDY    33  30  88 NW14      29.84F FOG
LIMON CO       CLOUDY    29  28  96 NW10      29.86F WCI  20
$$

...UNOFFICIAL OBSERVATIONS...

CITY           SKY/WX    TMP DP  RH WIND       PRES   REMARKS
COLBY KS       CLOUDY    36  36 100 NW7       29.83R FOG
GOVE KS          N/A     40  32  73 MISG        N/A
LENORA KS        N/A     40  32  73 MISG        N/A
NORTON KS      DRIZZLE   39  36  87 N12G17    29.79F
SHARON SPRINGS   N/A     34  32  93 NW9         N/A
TRIBUNE KS     CLOUDY    36  34  93 NW14      29.85
KIT CARSON CO    N/A     33  30  90 MISG        N/A
YUMA CO          N/A     32  31  96 CALM        N/A
$$




USA.gov is the U.S. government's official web portal to all federal, state and local government web resources and services.